Regional Weather Roundup
Issued by NWS Sterling, VA

Home | Current Version | Previous Version | Text Only | Print | Product List | Glossary On
Versions: 1 2 3 4 5 6 7 8 9 10 11 12 13 14 15 16 17 18 19 20 21 22 23 24 25 26 27
000
ASUS41 KLWX 310210
RWRLWX

REGIONAL WEATHER ROUNDUP
NATIONAL WEATHER SERVICE BALTIMORE MD/WASHINGTON DC
1000 PM EDT TUE AUG 30 2016

Note: "FAIR" indicates few or no clouds below 12,000 feet
with no significant weather and/or obstructions to visibility.
 TC=TEMPERATURE CELSIUS

 * =Non NWS site. Station does not report precipitation (e.g. rain,
    snow, etc.), thunder, or fog.

DCZ001-MDZ009-015-VAZ040>042-051-053>054-310300-
WASHINGTON METRO

CITY           SKY/WX    TMP DP  RH WIND       PRES   REMARKS
WASHINGTON NAT PTCLDY    80  65  59 SE3       30.05R
DULLES         PTCLDY    76  64  66 S5        30.05R
ANDREWS AFB    CLEAR     71  65  82 CALM      30.05R
FT BELVOIR     CLEAR     71  65  81 CALM      30.05R
COLLEGE PARK*  CLEAR     70  64  83 CALM      30.04S
LEESBURG*      CLEAR     77  70  78 SW8       30.06S
MANASSAS*      CLEAR     77  66  69 CALM      30.05
GAITHERSBURG*  CLEAR     72  63  73 CALM      30.10R

$$

MDZ006>007-011-014-310300-
BALTIMORE METRO

CITY           SKY/WX    TMP DP  RH WIND       PRES   REMARKS
BWI AIRPORT    CLEAR     72  64  76 CALM      30.04S
MD SCIENCE CTR   N/A     82  63  52 MISG      30.04S
MARTIN STATE   CLEAR     73  72  94 CALM      30.05S
ANNAPOLIS      CLEAR     76  70  82 CALM      30.04S
FORT MEADE*    CLEAR     66  64  94 CALM      30.07S

$$

MDZ012-015-019>023-310300-
MARYLAND EASTERN SHORE

CITY           SKY/WX    TMP DP  RH WIND       PRES   REMARKS
OCEAN CITY     CLEAR     77  72  84 SE5       30.05S
SALISBURY      CLEAR     73  72  96 E3        30.04S
BAY BRIDGE AP* CLEAR     75  68  78 MISG      30.04S
CAMBRIDGE*     CLEAR     70  68  94 CALM      30.05R
EASTON*        CLEAR     74  70  87 CALM      30.08S

$$

MDZ017>025-310300-
SOUTHERN MARYLAND

CITY           SKY/WX    TMP DP  RH WIND       PRES   REMARKS
PATUXENT RIVER CLEAR     77  66  68 E6        30.04R
ST INIGOES     CLEAR     72  67  84 CALM      30.03R
LEONARDTOWN*   CLEAR     70  64  83 CALM      30.06R

$$

MDZ003>005-310300-
NORTH CENTRAL MARYLAND

CITY           SKY/WX    TMP DP  RH WIND       PRES   REMARKS
FREDERICK*     CLEAR     70  70 100 CALM      30.08R
HAGERSTOWN APT CLEAR     77  58  51 CALM      30.06R

$$

MDZ501>502-310300-
WESTERN MARYLAND

CITY           SKY/WX    TMP DP  RH WIND       PRES   REMARKS
OAKLAND*       CLEAR     66  54  63 CALM      30.18S
CUMBERLAND*    CLEAR     73  61  64 N3        30.10S

$$

VAZ025>031-310300-
SHENANDOAH VALLEY

CITY           SKY/WX    TMP DP  RH WIND       PRES   REMARKS
WINCHESTER*    CLEAR     70  63  78 CALM      30.06S
FRONT ROYAL*   FAIR      70  68  94 CALM      30.06R
LURAY*         FAIR      72  72 100 CALM      30.07R
NEW MARKET*    FAIR     N/A N/A N/A CALM      30.06R
STAUNTON*      HVY RAIN  69  68  97 CALM      30.12R
WAYNESBORO*    CLOUDY    74  69  85 N6        30.11R

$$

WVZ021-048>050-054>055-310300-
EASTERN WEST VIRGINIA PANHANDLE

CITY           SKY/WX    TMP DP  RH WIND       PRES   REMARKS
MARTINSBURG    CLEAR     71  64  78 CALM      30.05R
PETERSBURG*    CLEAR     72  66  81 CALM      30.07R

$$

VAZ036>039-050-310300-
CENTRAL FOOTHILLS

CITY           SKY/WX    TMP DP  RH WIND       PRES   REMARKS
CHARLOTTESVILL CLOUDY    79  70  74 CALM      30.06R
CULPEPER*      CLEAR     72  70  94 CALM      30.06R
ORANGE*          N/A     72  72 100 CALM      30.07R
GORDONSVILLE*  NOT AVBL
WARRENTON*     FAIR      71  64  76 CALM      30.05S

$$

VAZ055>057-310300-
NORTH AND CENTRAL PIEDMONT

CITY           SKY/WX    TMP DP  RH WIND       PRES   REMARKS
FREDERICKSBRG* CLEAR     74  70  86 CALM      30.04R
STAFFORD*      CLEAR     70  68  94 CALM      30.09R

$$

NCZ024-NYZ072-PAZ021-071-VAZ022-071-310300-
OTHER REGIONAL OBSERVATIONS

CITY           SKY/WX    TMP DP  RH WIND       PRES   REMARKS
NEW YORK CITY  PTCLDY    75  66  73 VRB3      30.08S
PHILADELPHIA   PTCLDY    78  71  79 S5        30.05R
PITTSBURGH     PTCLDY    76  53  44 CALM      30.08R
ROANOKE        CLEAR     78  70  76 CALM      30.09R
RICHMOND       PTCLDY    76  69  79 E5        30.04R
RALEIGH        PTCLDY    77  68  73 NE3       30.02S

$$

ANZ530>537-310300-
MARINE OBSERVATIONS

STATION/POSITION TIME  TEMP    WIND        PRES
                       AIR SEA DIR/SP/G
                 (UTC) (F)     (DEG/KT/KT) (MB)
THOMAS PT LIGHT  0200   81 83  130/  6/  7 1018.7R
BALT KEY BRIDGE  0148   82     120/  3/  4   N/A
COVE POINT       0148   80     120/  7/  9   N/A
LEWISETTA        0142   80 85   CALM  /  1   N/A
SOLOMONS ISLAND  0148   81 85   60/  4/  5   N/A
PINEY POINT      0142           80/  3/  4   N/A

$$





USA.gov is the U.S. government's official web portal to all federal, state and local government web resources and services.